Location: Newark
(49.8348°N, 24.0280°E)
Time: 07:07:35
(UTC+00:00)

deb Explorer IX - Pass Details

Date: 01 February 2020
Orbit: 549 x 1099 km, 38.8° (Epoch: 20 February)

Event Time Altitude Azimuth Distance (km) Brightness Sun altitude
Rises 16:51:12 0° 211° (SSW) 3,347 ? -15.2°
Reaches altitude 10° 16:54:24 10° 192° (SSW) 2,525 ? -15.7°
Maximum altitude 16:58:20 18° 152° (SSE) 2,134 ? -16.3°
Enters shadow 17:00:50 15° 125° (SE) 2,403 ? -16.7°
